Flag for Brazil Weather past 2 weeks in Fortaleza, Ceará, Brazil

Now
82 °F

Scattered clouds.


Feels Like: 86 °F
Forecast: 76 / 85 °F
Wind: 21 mph from East

Location: Fortaleza Aeropor-To

Current Time: Sep 2, 2015 at 12:30:35 PM

Latest Report: Sep 2, 2015 at 12:00 PM


Visibility: N/A

Pressure: 29.98 "Hg

Humidity: 66%

Dew point: 70 °F

Location of FortalezaLocation

Historic Weather in Fortaleza — Graph

°F

Fortaleza temperature yesterday

Maximum temperature yesterday: 86 °F (at 11:00 AM)
Minimum temperature yesterday: 77 °F (at 2:00 AM)
Average temperature yesterday: 80 °F

Past Weeks' High & Low Weather Summary

 TemperatureHumidityPressure
High86 °F (Aug 21, 12:00 PM)94% (Sep 2, 8:00 AM)30.07 "Hg (Sep 2, 8:00 AM)
Low73 °F (Aug 19, 5:00 AM)42% (Aug 22, 3:00 AM)29.80 "Hg (Aug 22, 3:00 PM)
Average80 °F66%29.94 "Hg
* Reported Aug 18 11:00 AM — Sep 2 11:00 AM, Fortaleza, Weather by CustomWeather, © 2015

Note: Actual official high and low records may vary slightly from our data, if they occured in-between our weather recording intervals... More about our weather records

Advertising

Fortaleza weather history for previous 24 hours

 ConditionsComfort  
Time TempWeatherWind HumidityBarometerVisibility
11:00 AM
Wed, Sep 2
82 °FPartly sunny.20 mph62%29.98 "HgN/A
10:00 AM79 °FPartly sunny.17 mph74%30.01 "HgN/A
9:00 AM75 °FPartly sunny.6 mph89%30.01 "HgN/A
8:00 AM73 °FLight rain. Broken clouds.12 mph94%30.01 "Hg2 mi
7:00 AM79 °FPartly sunny.14 mph70%29.98 "HgN/A
6:00 AM79 °FPartly sunny.14 mph70%29.95 "HgN/A
5:00 AM77 °FPassing clouds.13 mph74%29.95 "HgN/A
4:00 AM77 °FPassing clouds.12 mph74%29.95 "HgN/A
3:00 AM77 °FPassing clouds.16 mph74%29.92 "HgN/A
2:00 AM77 °FPassing clouds.14 mph74%29.92 "HgN/A
1:00 AM77 °FPassing clouds.13 mph74%29.95 "HgN/A
12:00 AM77 °FPassing clouds.15 mph74%29.95 "HgN/A
11:00 PM
Tue, Sep 1
79 °FPassing clouds.13 mph70%29.98 "HgN/A
10:00 PM79 °FPassing clouds.13 mph70%29.98 "HgN/A
9:00 PM79 °FPassing clouds.15 mph70%29.98 "HgN/A
8:00 PM79 °FPassing clouds.14 mph74%29.95 "HgN/A
6:00 PM79 °FClear.14 mph70%29.89 "Hg10 mi
5:00 PM81 °FSunny.16 mph66%29.89 "Hg10 mi
4:00 PM82 °FSunny.16 mph58%29.89 "Hg10 mi
3:00 PM82 °FSunny.20 mph58%29.89 "Hg10 mi
2:00 PM84 °FSunny.22 mph55%29.89 "Hg10 mi
1:00 PM84 °FSunny.23 mph48%29.92 "Hg10 mi
12:00 PM86 °FPassing clouds.25 mph46%29.95 "HgN/A
Weather by CustomWeather, © 2015

See weather overviewHow to use our weather pages